This is the latest recevied weather packets stored in our database for station/object AD6NH. If no packets are shown the sender has not sent any weather packets the latest 10 day(s).
| Time | Temp. | Humidity | Pressure | Rain* | Wind** | Luminosity | Snow |
|---|---|---|---|---|---|---|---|
| 1777888022 | 14.44° C | 75% | 1015.3 hPa | 0 mm | - | - | - |
| 1777887422 | 14.44° C | 74% | 1015.4 hPa | 0 mm | - | - | - |
| 1777886822 | 14.44° C | 74% | 1015.2 hPa | 0 mm | - | - | - |
| 1777886223 | 14.44° C | 73% | 1015.4 hPa | 0 mm | - | - | - |
| 1777885622 | 15° C | 72% | 1015.3 hPa | 0 mm | - | - | - |
| 1777885023 | 15° C | 71% | 1015.5 hPa | 0 mm | - | - | - |
| 1777884422 | 15° C | 71% | 1015.7 hPa | 0 mm | - | - | - |
| 1777883823 | 15° C | 70% | 1015.8 hPa | 0 mm | - | - | - |
| 1777883222 | 15.56° C | 69% | 1016.3 hPa | 0 mm | - | - | - |
| 1777882623 | 15.56° C | 68% | 1016.2 hPa | 0 mm | - | - | - |
| 1777882022 | 15.56° C | 66% | 1016.5 hPa | 0 mm | - | - | - |
| 1777881422 | 15.56° C | 65% | 1016.2 hPa | 0 mm | - | - | - |
| 1777880822 | 15.56° C | 68% | 1016.2 hPa | 0 mm | - | - | - |
| 1777880222 | 15.56° C | 69% | 1016.4 hPa | 0 mm | - | - | - |
| 1777879622 | 15.56° C | 69% | 1016.7 hPa | 0 mm | - | - | - |
| 1777879022 | 15.56° C | 69% | 1016.4 hPa | 0 mm | - | - | - |
| 1777878422 | 15.56° C | 69% | 1016.3 hPa | 0 mm | - | - | - |
| 1777877823 | 16.11° C | 72% | 1016.5 hPa | 0 mm | - | - | - |
| 1777877222 | 15.56° C | 72% | 1015.9 hPa | 0 mm | - | - | - |
| 1777876622 | 15.56° C | 71% | 1015.7 hPa | 0 mm | - | - | - |
| 1777876022 | 16.11° C | 71% | 1016.1 hPa | 0 mm | - | - | - |
| 1777875422 | 16.11° C | 71% | 1015.4 hPa | 0 mm | - | - | - |
| 1777874822 | 16.11° C | 71% | 1015.6 hPa | 0 mm | - | - | - |
| 1777874223 | 16.11° C | 71% | 1015.3 hPa | 0 mm | - | - | - |
| 1777873622 | 16.11° C | 68% | 1015.2 hPa | 0 mm | - | - | - |
* Rain latest hour (hover to see other rain measurements)
** Current wind speed in m/s (hover to see current wind gust speed)